Moline, IL
on Friday, December 6, 2013

Friday
Previous Day Next Day
Daily Summary
 ActualAverageRecord
Temperature
Mean Temperature °F 30°F  
Max Temperature 19°F 38°F 63°F (1951)
Min Temperature 9°F 21°F -6°F (1882)
Degree Days
Heating Degree Days 51 35  
Month to date heating degree days 199 206  
Since 1 July heating degree days 1545 1437  
Cooling Degree Days 0 0  
Month to date cooling degree days 0 0  
Year to date cooling degree days 998 1004  
Moisture
Dew Point 3°F   
Average Humidity 59    
Maximum Humidity 73    
Minimum Humidity 45    
Precipitation
Precipitation 0.00 in 0.09 in 1.01 in (1998)
Month to date precipitation 0.04 0.50  
Year to date precipitation 38.06 36.28  
Snow
Snow 0.00 in 0.30 in in ()
Month to date snowfall T 1.4  
Since 1 July snowfall 1.0 2.6  
Snow Depth 0.00 in   
Wind
Wind Speed 11 mph   
Max Wind Speed 17 mph   
Max Gust Speed 22 mph   
Visibility 10 miles   
Events     

Key: T is trace of precipitation, MM is missing value
Source: NWS Daily Summary
Time(CST)TemperatureDew PointHumidity Pressure Visibility Wind DirectionWind SpeedGust SpeedPrecipitationEvents Conditions
12:52 AM 16.0°F 7.0°F 68% 30.35 in 10.0 miles NW 15.0 mph - N/A   Clear
1:52 AM 15.1°F 6.1°F 68% 30.38 in 10.0 miles NW 12.7 mph - N/A   Clear
2:52 AM 12.9°F 5.0°F 71% 30.38 in 10.0 miles NW 11.5 mph - N/A   Clear
3:52 AM 12.0°F 3.9°F 70% 30.39 in 10.0 miles WNW 9.2 mph - N/A   Clear
4:52 AM 12.0°F 3.0°F 67% 30.41 in 10.0 miles NW 12.7 mph - N/A   Clear
5:52 AM 12.0°F 3.0°F 67% 30.41 in 10.0 miles WNW 11.5 mph - N/A   Mostly Cloudy
6:52 AM 10.9°F 1.9°F 67% 30.43 in 10.0 miles WNW 13.8 mph - N/A   Overcast
7:52 AM 10.9°F 3.0°F 70% 30.45 in 10.0 miles WNW 12.7 mph - N/A   Overcast
8:52 AM 12.0°F 1.9°F 64% 30.48 in 10.0 miles WNW 9.2 mph - N/A   Overcast
9:52 AM 12.0°F 1.9°F 64% 30.49 in 10.0 miles WNW 10.4 mph - N/A   Clear
10:52 AM 12.9°F 1.9°F 62% 30.49 in 10.0 miles NW 9.2 mph - N/A   Clear
11:52 AM 14.0°F 1.0°F 56% 30.45 in 10.0 miles NNW 10.4 mph - N/A   Clear
12:52 PM 15.1°F 1.9°F 56% 30.47 in 10.0 miles NNW 6.9 mph - N/A   Clear
1:52 PM 18.0°F 1.9°F 50% 30.45 in 10.0 miles NNW 10.4 mph - N/A   Clear
2:52 PM 19.0°F 1.9°F 47% 30.46 in 10.0 miles NW 11.5 mph - N/A   Mostly Cloudy
3:52 PM 17.1°F 3.0°F 54% 30.48 in 10.0 miles NNW 11.5 mph - N/A   Overcast
4:52 PM 15.1°F 3.0°F 59% 30.49 in 10.0 miles NW 11.5 mph - N/A   Clear
5:52 PM 14.0°F 3.0°F 62% 30.51 in 10.0 miles NW 10.4 mph - N/A   Clear
6:52 PM 12.9°F 3.0°F 65% 30.55 in 10.0 miles WNW 12.7 mph - N/A   Clear
7:52 PM 12.9°F 3.0°F 65% 30.57 in 10.0 miles NW 10.4 mph - N/A   Clear
8:52 PM 12.0°F 3.0°F 67% 30.59 in 10.0 miles NW 10.4 mph - N/A   Clear
9:52 PM 12.0°F 1.9°F 64% 30.61 in 10.0 miles NW 10.4 mph - N/A   Overcast
10:52 PM 10.0°F 1.9°F 70% 30.63 in 10.0 miles NW 9.2 mph - N/A   Clear
11:52 PM 10.0°F 1.9°F 70% 30.65 in 10.0 miles NW 8.1 mph - N/A   Clear
Astronomy
Sunrise:07:14 AM (CST) Moon Rise:10:17 AM (CST)12/6
Sunset:04:32 PM (CST) Moon Set:09:06 PM (CST)12/6
Moon Phase
Dec. 06 Dec. 09 Dec. 17 Dec. 25 Jan. 01

Copyright © 2016 The Weather Underground, Inc.















  Today is Monday, May 30, the 151st day of 2016. There are 215 days left in the year.
1866 — 150 years ago: There was a frost on Monday night, the 28th, but it is not believed to have done much damage.
1891 — 125 years ago: Dr. Frank Bickel and R. William Shoemaker formed a partnership yesterday to practice dentistry.
1916 — 100 years ago: Kewpie Cerny's slugging gave Rock Island a 6-5 baseball victory over Bloomington.
1941 — 75 years ago: Ralph Lain, assistant principal of Moline High School, was elected president of the Moline Council of Social Agencies last night.
1966 — 50 years ago: Robert A. McGriff, son of Mr. and Mrs. Robert L. McGriff, of Moline, has been selected to participate in the 1966 European concert tour of the American Youth Band and Chorus. Members of the group were selected through a series of nationwide auditions based on musicianship.
1991 — 25 years ago: Tickets will go on sale at 10 a.m. June 1 for the Tom Jones concert to be held at the Adler Theatre in Davenport on July 19. The popular singer will present one show only, at 8 p.m. Tickets are $35 and $22.50.